Location: American Canyon
(38.1966°N, 122.1514°W)
Time: 12:29:25
(UTC+00:00)

ADEOS - Pass Details

Date: 29 October 2020
Orbit: 793 x 794 km, 98.9° (Epoch: 01 December)

Event Time Altitude Azimuth Distance (km) Brightness Sun altitude
Rises 12:41:08 0° 13° (NNE) 3,302 6.9 -22.3°
Reaches altitude 10° 12:43:28 10° 14° (NNE) 2,369 6.2 -21.9°
Maximum altitude 12:48:43 89° 100° (E) 799 3.5 -20.8°
Drops below altitude 10° 12:53:55 10° 195° (SSW) 2,353 5.9 -19.8°
Sets 12:56:14 0° 195° (SSW) 3,278 6.6 -19.4°
